Regional Weather Roundup
Issued by NWS

Home | Current Version | Previous Version | Text Only | Print | Product List | Glossary On
Versions: 1 2 3 4 5 6 7 8 9 10 11 12 13 14 15 16 17 18 19 20 21 22 23 24 25 26 27 28 29 30 31 32 33 34 35 36 37 38 39 40 41 42 43 44 45 46 47 48 49 50
000
ASUS46 KSTO 221315
RWRCA

NORTHERN AND CENTRAL CA REGIONAL WEATHER ROUNDUP
NATIONAL WEATHER SERVICE SACRAMENTO CA
500 AM PST WED NOV 22 2017

NOTE: FAIR INDICATES FEW OR NO CLOUDS BELOW 12,000 FEET WITH NO
SIGNIFICANT WEATHER AND/OR OBSTRUCTIONS TO VISIBILITY.

CAZ001-003-221400-
NORTHWEST AREA

CITY           SKY/WX    TMP DP  RH WIND       PRES   REMARKS
CRESCENT CITY  LGT RAIN  59  55  87 S15       30.06R
UKIAH          FOG       52  51  97 CALM      30.14R VSB 1/2
$$

CAZ006-505>513-221400-
BAY AREA

CITY           SKY/WX    TMP DP  RH WIND       PRES   REMARKS
SANTA ROSA     FOG       51  51 100 CALM      30.11F VSB 1/4
SAN RAFAEL     N/A       53  MM  MM MISG
NAPA           CLEAR     55  52  89 E9        30.12F
CONCORD        CLEAR     51  48  89 S5        30.14F FOG
OAKLAND CITY   N/A      MM  MM  MM MISG
OAKLAND        PTCLDY    50  50 100 CALM      30.12F FOG
SAN FRAN CITY  N/A       57  MM  80 MISG
SAN FRAN ARPT  PTCLDY    55  52  89 S6        30.12F
LIVERMORE      FOG       49  49 100 CALM      30.14S VSB 1/4
HAYWARD        CLEAR     54  49  83 E5        30.12S HAZE
REDWOOD CITY   N/A       50  MM  95 MISG
MOFFETT ARPT   CLEAR     54  52  93 SW3       30.13S
SAN JOSE ARPT  CLEAR     54  52  93 CALM      30.13R
$$
CAZ034-037-514>518-221400-
CENTRAL COAST

CITY           SKY/WX    TMP DP  RH WIND       PRES   REMARKS
WATSONVILLE    CLEAR     53  53 100 NW3       30.10S
SALINAS        CLEAR     55  48  77 E8        30.08F
MONTEREY       CLEAR     55  50  83 CALM      30.08S
SAN LUIS OBISP CLEAR     52  44  74 CALM      30.06S
SANTA MARIA    CLEAR     53  48  83 CALM      30.07R
$$
CAZ015-016-221400-
NORTHERN SACRAMENTO VALLEY

CITY           SKY/WX    TMP DP  RH WIND       PRES   REMARKS
REDDING        FOG       49  48  97 N3        30.17S VSB 1/4
RED BLUFF      FOG       49  48  97 N6        30.18R VSB 3/4
OROVILLE       FOG       50  50 100 NW5       30.17S VSB 1/2
$$
CAZ016>018-221400-
SOUTHERN SACRAMENTO VALLEY

CITY           SKY/WX    TMP DP  RH WIND       PRES   REMARKS
AUBURN         CLEAR     59  46  63 E12       30.17S
LINCOLN          N/A     45  43  93 NE3       30.14S
MARYSVILLE     FOG       46  45  96 NW3       30.16R VSB 1/2
SAC INTL ARPT  FOG       48  48 100 W3        30.14F VSB 1/8
MATHER AIRPORT   N/A     48  46  93 CALM      30.14S
DOWNTOWN SAC   N/A       52  MM  MM MISG
SAC EXEC ARPT  FOG       49  49 100 CALM      30.14F VSB 1/4
VACAVILLE      CLEAR     51  51 100 NE5       30.15F
$$
CAZ019>021-221400-
SAN JOAQUIN VALLEY

CITY           SKY/WX    TMP DP  RH WIND       PRES   REMARKS
STOCKTON       FOG       46  46 100 SW3       30.15R VSB 1/4
MODESTO        CLEAR     50  49  96 NW3       30.15R FOG
MERCED         FOG       44  43  96 CALM      30.14S VSB<1/4
LEMOORE        CLEAR    N/A N/A N/A W5        30.16S HAZE
FRESNO         CLEAR     50  46  86 CALM      30.15S FOG
HANFORD        CLEAR     45  44  97 CALM      30.16S FOG
PORTERVILLE    CLEAR     45  41  86 SE6       30.17R
BAKERSFIELD    CLEAR     50  39  66 NE3       30.15S
$$
CAZ011-012-071-221400-
NORTHERN MOUNTAINS

CITY           SKY/WX    TMP DP  RH WIND       PRES   REMARKS
YREKA          MOCLDY    47  45  93 NE7       30.18F
MOUNT SHASTA   CLEAR     43  41  93 CALM      30.23F
ALTURAS        MOCLDY    40  37  89 CALM      30.30R
$$
CAZ011-012-071-221400-
SIERRA NEVADA MTNS

CITY           SKY/WX    TMP DP  RH WIND       PRES   REMARKS
BLUE CANYON    CLEAR     58  38  47 SE5       30.35R
TRUCKEE        FOG       32  32 100 CALM      30.41R VSB<1/4
TAHOE VLY ARPT CLOUDY    32  31  96 CALM      30.41R
MAMMOTH LAKES  FAIR      31  30  96 CALM      30.48S
$$



USA.gov is the U.S. government's official web portal to all federal, state and local government web resources and services.